Home   Weather   Tønsberg   Past weeks

Flag for Norway Past Weather in Tønsberg, Norway — Yesterday and Last 2 Weeks

Now
41 °F

Passing clouds.


Feels Like: 30 °F
Forecast: 34 / 47 °F
Wind: 26 mph from Northeast

Location: Oseberg

Current Time: Apr 25, 2017 at 4:59:05 am

Latest Report: Apr 25, 2017 at 3:50 am


Visibility: N/A

Pressure: 29.59 "Hg

Humidity: 70%

Dew Point: 32 °F

Location of TønsbergLocation

Past Weather in Tønsberg — Graph

°F

Tønsberg Temperature Yesterday

Maximum temperature yesterday: 39 °F (at 12:50 am)
Minimum temperature yesterday: 36 °F (at 3:50 am)
Average temperature yesterday: 38 °F

High & Low Weather Summary for the Past Weeks

 TemperatureHumidityPressure
High48 °F (Apr 15, 7:50 pm)100% (Apr 10, 8:50 pm)30.54 "Hg (Apr 10, 8:50 pm)
Low36 °F (Apr 10, 6:50 pm)53% (Apr 13, 9:50 am)29.42 "Hg (Apr 12, 12:20 pm)
Average42 °F76%29.90 "Hg
* Reported Apr 10 2:50 am — Apr 25 2:50 am, Tønsberg, Weather by CustomWeather, © 2017

Note: Actual official high and low records may vary slightly from our data, if they occured in-between our weather recording intervals... More about our weather records

Advertising

Tønsberg Weather History for the Previous 24 Hours

Scroll right to see more
 ConditionsComfort  
Time TempWeatherWind HumidityBarometerVisibility
2:50 am
Tue, Apr 25
39 °FPassing clouds.18 mph75%29.59 "HgN/A
1:50 am39 °FPassing clouds.12 mph75%29.59 "HgN/A
12:50 am39 °FPassing clouds.17 mph81%29.59 "HgN/A
11:47 pm
Mon, Apr 24
39 °FPassing clouds.21 mph81%29.59 "HgN/A
10:50 pm37 °FSprinkles. Passing clouds.22 mph87%29.59 "HgN/A
10:20 pm36 °FScattered showers. Partly cloudy.16 mph93%29.59 "HgN/A
8:50 pm36 °FScattered showers. Partly sunny.30 mph87%29.65 "HgN/A
8:20 pm37 °FSprinkles. Partly sunny.31 mph81%29.65 "HgN/A
7:50 pm37 °FScattered showers. Partly sunny.29 mphN/A29.65 "HgN/A
7:20 pm37 °FScattered showers. Partly sunny.28 mph75%29.65 "HgN/A
6:50 pm36 °FScattered showers. Broken clouds.24 mphN/A29.65 "HgN/A
5:50 pm39 °FScattered showers. Partly sunny.29 mph65%29.68 "HgN/A
5:20 pm37 °FScattered showers. Broken clouds.28 mph70%29.65 "HgN/A
4:50 pm36 °FSnow flurries. Scattered clouds.32 mph81%29.65 "HgN/A
4:20 pm39 °FScattered showers. Scattered clouds.29 mph61%29.68 "HgN/A
3:50 pm37 °FScattered showers. Scattered clouds.35 mph75%29.68 "HgN/A
3:16 pm37 °FSnow flurries. Scattered clouds.25 mph65%29.68 "HgN/A
2:50 pm37 °FScattered showers. Scattered clouds.33 mph65%29.68 "HgN/A
1:20 pm37 °FScattered showers. Scattered clouds.31 mph65%29.68 "Hg6 mi
12:50 pm37 °FScattered showers. Partly sunny.32 mph70%29.68 "HgN/A
11:50 am36 °FScattered showers. Partly sunny.31 mph75%29.68 "HgN/A
11:20 am39 °FScattered showers. Scattered clouds.31 mph56%29.68 "Hg6 mi
10:50 am37 °FScattered showers. Scattered clouds.32 mph56%29.68 "HgN/A
10:20 am36 °FSprinkles. Scattered clouds.35 mph65%29.68 "HgN/A
9:50 am39 °FScattered showers. Scattered clouds.32 mph56%29.68 "HgN/A
9:20 am39 °FSprinkles. Partly sunny.38 mph61%29.68 "HgN/A
8:50 am37 °FSprinkles. Partly sunny.44 mph60%29.68 "HgN/A
8:20 am37 °FSnow flurries. Partly sunny.43 mphN/A29.68 "HgN/A
7:46 am37 °FSnow flurries. Partly sunny.35 mph75%29.68 "HgN/A
7:20 am37 °FScattered showers. Scattered clouds.43 mphN/A29.68 "HgN/A
6:50 am37 °FScattered showers. Scattered clouds.46 mph75%29.68 "HgN/A
6:20 am37 °FScattered clouds.48 mph70%29.65 "HgN/A
5:50 am37 °FScattered clouds.46 mph65%29.65 "HgN/A
4:50 am37 °FPassing clouds.48 mph56%29.65 "HgN/A
Weather by CustomWeather, © 2017

See weather overviewHow to use our weather pages